Location: S�deilles
(46.7500°N, 6.9329°E)
Time: 08:03:23
(UTC+00:00)

Okean 3 - Pass Details

Date: 08 March 2021
Orbit: 577 x 600 km, 82.5° (Epoch: 14 April)

Event Time Altitude Azimuth Distance (km) Brightness Sun altitude
Rises 19:14:34 0° 345° (NNW) 2,840 7.4 -18.9°
Reaches altitude 10° 19:16:50 10° 340° (NNW) 1,938 6.5 -19.3°
Maximum altitude 19:20:57 47° 266° (W) 792 4.5 -20.0°
Drops below altitude 10° 19:25:03 10° 193° (SSW) 1,932 6.1 -20.6°
Sets 19:27:18 0° 187° (S) 2,831 6.9 -21.0°
